Location: �perlecques
(50.8057°N, 2.1521°E)
Time: 18:16:34
(UTC+00:00)

STARLINK-1246 - Pass Details

Date: 09 April 2020
Orbit: 549 x 550 km, 53.0° (Epoch: 26 May)

Event Time Altitude Azimuth Distance (km) Brightness Sun altitude
Rises 18:54:01 0° 283° (WNW) 2,729 10.3 -3.3°
Reaches altitude 10° 18:56:16 10° 286° (WNW) 1,835 8.4 -3.7°
Maximum altitude 19:00:26 71° 10° (N) 589 3.8 -4.3°
Drops below altitude 10° 19:04:36 10° 96° (E) 1,833 5.7 -4.9°
Enters shadow 19:05:29 - 97° (E) 2,182 6.0 -5.0°
